Boulder Muni, Boulder, CO, CO

7:59 PM MST on December 15, 2019 (GMT -0700)
Boulder Muni, Boulder, CO

Weather History for KBDU - November, 2019

Change the Weather History Date:

Thursday, November 21, 2019

  Actual Average Record
Temperature  
Mean Temperature 29 °F -  
Max Temperature 30 °F - 66 °F (2016)
Min Temperature 28 °F - 15 °F (2013)
Degree Days  
Heating Degree Days 36    
Month to date heating degree days 467  
Cooling Degree Days 0    
Month to date cooling degree days 0  
Moisture  
Dew Point 28 °F    
Average Humidity 96    
Maximum Humidity 100    
Minimum Humidity 92    
Precipitation  
Precipitation 0.00 in - 0.02 in (2017)
Snow  
Snow 0.00 in - - ()
Snow Depth 0.00 in    
Sea Level Pressure  
Sea Level Pressure 30.09 in    
Wind  
Wind Speed 2 mph (NNE)    
Max Wind Speed 6 mph    
Max Gust Speed -    
Visibility 7 miles    
Events Snow    
T = Trace of Precipitation, MM = Missing Value Source: NWS Daily Summary

Daily Weather History Graph

Daily Weather History Graph

Search for Another Location

Airport or City:

Astronomy

Nov. 21, 2019 Rise Set
Actual Time 6:52 AM MST 4:40 PM MST
Civil Twilight 6:23 AM MST 5:09 PM MST
Nautical Twilight 5:50 AM MST 5:42 PM MST
Astronomical Twilight 5:17 AM MST 6:15 PM MST
Moon 12:51 AM MST (11/21) 2:10 PM MST (11/21)
Length of Visible Light 10h 46m
Length of Day
9h 47m
Waning Crescent, 29% of the Moon is Illuminated
Nov 21
Waning Crescent
Nov 26
New
Dec 3
First Quarter
Dec 11
Full
Dec 18
Last Quarter

Hourly Weather History & Observations

Time (MST) Temp. Windchill Dew Point Humidity Pressure Visibility Wind Dir Wind Speed Gust Speed Precip Events Conditions
12:12 AM 30.2 °F - 30.2 °F 100% 30.04 in 2.0 mi Calm Calm - N/A   Overcast
12:30 AM 30.2 °F - 30.2 °F 100% 30.03 in 5.0 mi Calm Calm - N/A   Overcast
12:48 AM 30.2 °F - 30.2 °F 100% 30.03 in 7.0 mi Calm Calm - N/A   Overcast
1:12 AM 30.2 °F 26.7 °F 30.2 °F 100% 30.04 in 4.0 mi NNE 3.5 mph - N/A   Overcast
1:30 AM 30.2 °F 26.7 °F 30.2 °F 100% 30.04 in 4.0 mi North 3.5 mph - N/A   Overcast
1:48 AM 30.2 °F 26.7 °F 30.2 °F 100% 30.04 in 4.0 mi NNE 3.5 mph - N/A Snow Light Snow
2:12 AM 30.2 °F 26.7 °F 28.4 °F 93% 30.04 in 10.0 mi NE 3.5 mph - N/A   Overcast
2:30 AM 30.2 °F 26.7 °F 28.4 °F 93% 30.04 in 10.0 mi NNE 3.5 mph - N/A   Overcast
2:48 AM 30.2 °F 25.4 °F 28.4 °F 93% 30.05 in 7.0 mi NNE 4.6 mph - N/A   Overcast
3:11 AM 28.4 °F 23.3 °F 28.4 °F 100% 30.06 in 3.0 mi NNE 4.6 mph - N/A   Overcast
3:29 AM 28.4 °F - 28.4 °F 100% 30.06 in 4.0 mi Calm Calm - N/A Snow Light Snow
3:53 AM 28.4 °F 22.2 °F 28.4 °F 100% 30.05 in 3.0 mi NE 5.8 mph - N/A Snow Light Snow
4:12 AM 28.4 °F 24.6 °F 28.4 °F 100% 30.06 in 2.5 mi NE 3.5 mph - N/A Snow Light Snow
4:48 AM 28.4 °F 24.6 °F 28.4 °F 100% 30.07 in 2.0 mi NE 3.5 mph - N/A   Overcast
5:13 AM 28.4 °F - 28.4 °F 100% 30.07 in 2.5 mi Calm Calm - N/A   Overcast
5:31 AM 28.4 °F 22.2 °F 28.4 °F 100% 30.07 in 3.0 mi North 5.8 mph - N/A   Overcast
5:49 AM 28.4 °F 23.3 °F 28.4 °F 100% 30.07 in 4.0 mi NNW 4.6 mph - N/A   Overcast
6:12 AM 28.4 °F 23.3 °F 28.4 °F 100% 30.07 in 2.5 mi NNW 4.6 mph - N/A   Overcast
6:30 AM 28.4 °F 24.6 °F 28.4 °F 100% 30.08 in 3.0 mi NNW 3.5 mph - N/A   Overcast
6:48 AM 28.4 °F 24.6 °F 28.4 °F 100% 30.09 in 2.5 mi North 3.5 mph - N/A   Overcast
7:30 AM 28.4 °F - 26.6 °F 93% 30.10 in 10.0 mi Calm Calm - N/A   Overcast
7:48 AM 28.4 °F - 26.6 °F 93% 30.11 in 10.0 mi Calm Calm - N/A   Overcast
8:12 AM 28.4 °F 24.6 °F 26.6 °F 93% 30.11 in 7.0 mi NNE 3.5 mph - N/A   Overcast
8:30 AM 28.4 °F 23.3 °F 26.6 °F 93% 30.11 in 5.0 mi ENE 4.6 mph - N/A   Overcast
8:53 AM 28.4 °F 22.2 °F 26.6 °F 93% 30.12 in 10.0 mi NE 5.8 mph - N/A   Overcast
9:11 AM 28.4 °F 24.6 °F 26.6 °F 93% 30.12 in 10.0 mi NE 3.5 mph - N/A   Overcast
9:29 AM 28.4 °F 24.6 °F 26.6 °F 93% 30.12 in 7.0 mi NE 3.5 mph - N/A   Overcast
9:53 AM 28.4 °F - 26.6 °F 93% 30.13 in 10.0 mi Calm Calm - N/A   Overcast
10:12 AM 28.4 °F - 26.6 °F 93% 30.13 in 10.0 mi Calm Calm - N/A   Overcast
10:30 AM 28.4 °F - 26.6 °F 93% 30.13 in 10.0 mi Calm Calm - N/A   Overcast
10:48 AM 28.4 °F - 26.6 °F 93% 30.12 in 7.0 mi Calm Calm - N/A   Overcast
11:12 AM 28.4 °F 24.6 °F 26.6 °F 93% 30.11 in 10.0 mi NNE 3.5 mph - N/A   Overcast
11:48 AM 28.4 °F - 26.6 °F 93% 30.09 in 10.0 mi Calm Calm - N/A   Overcast
12:12 PM 28.4 °F 23.3 °F 26.6 °F 93% 30.09 in 7.0 mi ENE 4.6 mph - N/A   Overcast
12:30 PM 28.4 °F - 26.6 °F 93% 30.09 in 10.0 mi Calm Calm - N/A   Overcast
12:48 PM 28.4 °F 24.6 °F 26.6 °F 93% 30.09 in 10.0 mi ENE 3.5 mph - N/A   Overcast
1:12 PM 28.4 °F 24.6 °F 26.6 °F 93% 30.07 in 7.0 mi NNE 3.5 mph - N/A   Overcast
1:30 PM 28.4 °F - 28.4 °F 100% 30.07 in 1.8 mi Calm Calm - N/A Snow Light Snow
1:48 PM 28.4 °F - 28.4 °F 100% 30.09 in 1.2 mi Calm Calm - N/A Snow Light Snow
2:12 PM 28.4 °F - 28.4 °F 100% 30.09 in 1.5 mi Calm Calm - N/A Snow Light Snow
2:30 PM 28.4 °F - 28.4 °F 100% 30.07 in 2.0 mi Calm Calm - N/A Snow Light Snow
2:48 PM 30.2 °F - 28.4 °F 93% 30.09 in 7.0 mi Calm Calm - N/A Snow Light Snow
3:12 PM 30.2 °F 26.7 °F 28.4 °F 93% 30.09 in 10.0 mi NE 3.5 mph - N/A   Overcast
3:30 PM 30.2 °F 26.7 °F 28.4 °F 93% 30.09 in 10.0 mi North 3.5 mph - N/A   Overcast
3:48 PM 28.4 °F 24.6 °F 28.4 °F 100% 30.09 in 10.0 mi North 3.5 mph - N/A   Overcast
4:12 PM 28.4 °F - 28.4 °F 100% 30.09 in 10.0 mi Calm Calm - N/A   Overcast
4:48 PM 28.4 °F - 28.4 °F 100% 30.09 in 10.0 mi Calm Calm - N/A   Overcast
5:12 PM 28.4 °F - 28.4 °F 100% 30.09 in 10.0 mi Calm Calm - N/A   Overcast
5:30 PM 28.4 °F - 28.4 °F 100% 30.09 in 10.0 mi Calm Calm - N/A   Overcast
5:48 PM 30.2 °F - 28.4 °F 93% 30.10 in 10.0 mi Calm Calm - N/A   Overcast
6:12 PM 28.4 °F - 28.4 °F 100% 30.10 in 10.0 mi Calm Calm - N/A   Overcast
6:30 PM 28.4 °F - 28.4 °F 100% 30.10 in 10.0 mi Calm Calm - N/A   Overcast
7:12 PM 28.4 °F - 28.4 °F 100% 30.10 in 10.0 mi Calm Calm - N/A   Overcast
7:30 PM 28.4 °F - 28.4 °F 100% 30.11 in 10.0 mi Calm Calm - N/A   Overcast
8:12 PM 28.4 °F 24.6 °F 28.4 °F 100% 30.10 in 10.0 mi ENE 3.5 mph - N/A   Overcast
8:30 PM 28.4 °F - 28.4 °F 100% 30.10 in 10.0 mi Calm Calm - N/A   Overcast
8:48 PM 28.4 °F - 28.4 °F 100% 30.10 in 10.0 mi Calm Calm - N/A   Overcast
9:12 PM 28.4 °F - 28.4 °F 100% 30.10 in 2.5 mi Calm Calm - N/A Snow Light Snow
9:30 PM 28.4 °F - 28.4 °F 100% 30.10 in 3.0 mi Calm Calm - N/A Snow Light Snow
10:12 PM 28.4 °F - 28.4 °F 100% 30.10 in 4.0 mi Calm Calm - N/A Snow Light Snow
10:30 PM 28.4 °F - 28.4 °F 100% 30.11 in 4.0 mi Calm Calm - N/A Snow Light Snow
10:53 PM 28.4 °F - 28.4 °F 100% 30.10 in 5.0 mi Calm Calm - N/A Snow Light Snow
11:30 PM 28.4 °F - 28.4 °F 100% 30.10 in 7.0 mi Calm Calm - N/A   Overcast
11:48 PM 28.4 °F - 28.4 °F 100% 30.10 in 7.0 mi Calm Calm - N/A   Overcast